Flag for Greece Weather past 2 weeks in Rhodes, Rhodes, Greece

Now
79 °F

Sunny.


Feels Like: 80 °F
Forecast: 71 / 79 °F
Wind: 10 mph from West

Location: Rhodes Airport

Current Time: Oct 2, 2014 at 3:43:41 PM

Latest Report: Oct 2, 2014 at 2:50 PM


Visibility: 10 mi

Pressure: 29.98 "Hg

Humidity: 58%

Dew point: 63 °F

Location of RhodesLocation

Historic Weather in Rhodes — Graph

°F

Rhodes temperature yesterday

Maximum temperature yesterday: 79 °F (at 2:50 PM)
Minimum temperature yesterday: 68 °F (at 6:50 AM)
Average temperature yesterday: 72 °F

Past Weeks' High & Low Weather Summary

 TemperatureHumidityPressure
High84 °F (Sep 23, 2:50 PM)94% (Sep 23, 5:50 AM)30.09 "Hg (Sep 23, 5:50 AM)
Low64 °F (Sep 27, 2:50 PM)32% (Sep 30, 11:50 AM)29.74 "Hg (Sep 27, 12:20 AM)
Average75 °F65%29.91 "Hg
* Reported Sep 17 2:20 PM — Oct 2 2:20 PM, Rhodes, Weather by CustomWeather, © 2014

Note: Actual official high and low records may vary slightly from our data, if they occured in-between our weather recording intervals... More about our weather records

Advertising

Rhodes weather history for previous 24 hours

 ConditionsComfort  
Time TempWeatherWind HumidityBarometerVisibility
2:20 PM
Oct 2
79 °FSunny.12 mph61%29.98 "Hg10 mi
1:50 PM79 °FSunny.10 mph61%29.98 "Hg10 mi
1:20 PM77 °FSunny.9 mph65%30.01 "Hg10 mi
12:50 PM77 °FSunny.9 mph65%30.01 "Hg10 mi
12:20 PM77 °FSunny.8 mph65%30.01 "Hg10 mi
11:50 AM77 °FSunny.8 mph65%30.01 "Hg10 mi
11:20 AM77 °FSunny.8 mph61%30.01 "Hg10 mi
10:50 AM75 °FSunny.8 mph65%30.01 "Hg10 mi
10:20 AM75 °FSunny.7 mph65%30.01 "Hg10 mi
9:50 AM73 °FSunny.8 mph65%30.01 "Hg10 mi
9:20 AM72 °FSunny.6 mph65%30.01 "Hg10 mi
8:50 AM70 °FSunny.6 mph69%29.98 "Hg10 mi
8:20 AM68 °FSunny.5 mph73%29.98 "Hg10 mi
7:50 AM68 °FClear.5 mph73%29.98 "Hg10 mi
7:20 AM68 °FClear.3 mph78%29.98 "Hg10 mi
6:50 AM68 °FClear.3 mph78%29.98 "Hg10 mi
6:20 AM68 °FClear.No wind78%29.98 "Hg10 mi
5:50 AM68 °FClear.1 mph78%29.98 "Hg10 mi
5:20 AM70 °FClear.No wind73%29.98 "Hg10 mi
4:50 AM70 °FClear.3 mph73%29.98 "Hg10 mi
4:20 AM70 °FClear.6 mph73%29.98 "Hg10 mi
3:50 AM70 °FClear.6 mph73%29.98 "Hg10 mi
3:20 AM70 °FClear.7 mph73%29.98 "Hg10 mi
2:50 AM70 °FClear.6 mph73%29.98 "Hg10 mi
2:20 AM70 °FClear.7 mph78%29.98 "Hg10 mi
1:50 AM70 °FClear.7 mph78%29.98 "Hg10 mi
1:20 AM70 °FClear.8 mph78%29.98 "Hg10 mi
12:50 AM70 °FClear.7 mph78%29.98 "Hg10 mi
12:20 AM70 °FClear.7 mph78%29.98 "Hg10 mi
11:50 PM
Oct 1
70 °FClear.5 mph78%29.98 "Hg10 mi
11:20 PM70 °FClear.5 mph78%29.98 "Hg10 mi
10:50 PM70 °FClear.6 mph78%29.98 "Hg10 mi
10:20 PM72 °FClear.5 mph73%29.98 "Hg10 mi
9:50 PM72 °FClear.5 mph73%29.98 "Hg10 mi
9:20 PM72 °FClear.5 mph73%29.98 "Hg10 mi
8:50 PM72 °FClear.7 mph73%29.98 "Hg10 mi
8:20 PM73 °FClear.6 mph69%29.98 "Hg10 mi
7:50 PM73 °FSunny.7 mph69%29.98 "Hg10 mi
7:20 PM75 °FSunny.6 mph57%30.01 "Hg10 mi
6:50 PM75 °FSunny.9 mph57%30.01 "Hg10 mi
6:20 PM75 °FSunny.10 mph57%30.01 "Hg10 mi
5:50 PM75 °FSunny.10 mph57%30.01 "Hg10 mi
5:20 PM77 °FSunny.9 mph51%30.01 "Hg10 mi
4:50 PM79 °FSunny.9 mph48%30.01 "Hg10 mi
4:20 PM79 °FSunny.8 mph48%30.01 "Hg10 mi
3:50 PM79 °FSunny.8 mph48%30.01 "Hg10 mi
3:20 PM79 °FSunny.7 mph48%30.01 "Hg10 mi
Weather by CustomWeather, © 2014

See weather overviewHow to use our weather pages